Retour au catalogue

ASNARO

ActifScienceSSO
NORAD 40298·PAYLOAD·🇯🇵 Japan

Lancé Nov 6, 2014 depuis Dombarovsky

Loading…

Prochains Passages (prochaines 24 heures)

TLE

FraisSource: Space-Track

Époque: Sep 14, 2026, 21:52 UTC

1 40298U 14070A   26257.91177134  .00004819  00000-0  22887-3 0  9992
2 40298  97.3381 331.5776 0004197 184.2946 175.8253 15.19685118657636

Suivez ASNARO en temps réel avec AllMySat

Download on the App Store